SCP
0 0 0 0 0 0 0 0 0 0 0 0 0 0 0 0 0 0 0 0 0 0 0 0 0 0 0 0 0 0 0 0 0 0 0 0 0 0 0 0 0 0 0
0 0 0 0 0 0 0 0 0 0 0 0 0 0 0 0 0 0 0 0 0 0 0 0 0 0 0 0 0 0 0 0 0 0 0 0 0 0 0 0 0 0 0
0 0 0 0 0 0 0 0 0 0 0 0 0 0 0 0 0 0 0 0 0 0 0 0 0 0 0 0 0 0 0 0 0 0 0 0 0 0 0 0 0 0 0
0 0 0 0 0 0 0 0 0 0 0 0 0 0 0 0 0 0 0 0 0 0 0 0 0 0 0 0 0 0 0 0 0 0 0 0 0 0 0 0 0 0 0
0 0 0 0 0 0 0 0 0 0 0 0 0 0 0 0 0 0 0 0 0 0 0 0 0 0 0 0 0 0 0 0 0 0 0 0 0 0 0 0 0 0 0
0 0 0 0 0 0 0 0 0 0 0 0 0 0 0 0 0 0 0 0 0 0 0 0 0 0 0 0 0 0 0 0 0 0 0 0 0 0 0 0 0 0 0
0 0 0 0 0 0 0 0 0 0 0 0 0 0 0 0 0 0 0 0 0 0 0 0 0 0 0 0 0 0 0 0 0 0 0 0 0 0 0 0 0 0 0
0 0 0 0 0 0 0 0 0 0 0 0 0 0 0 0 0 0 0 0 0 0 0 0 0 0 0 0 0 0 0 0 0 0 0 0 0 0 0 0 0 0 0
0 0 0 0 0 0 0 0 0 0 0 0 0 0 0 0 0 0 0 0 0 0 0 0 0 0 0 0 0 0 0 0 0 0 0 0 0 0 0 0 0 0 0
0 0 0 0 0 0 0 0 0 0 0 0 0 0 0 0 0 0 0 0 0 0 0 0 0 0 0 0 0 0 0 0 0 0 0 0 0 0 0 0 0 0 0
0 0 0 0 0 0 0 0 0 0 0 0 0 0 0 0 0 0 0 0 0 0 0 0 0 0 0 0 0 0 0 0 0 0 0 0 0 0 0 0 0 0 0
0 0 0 0 0 0 0 0 0 0 0 0 0 0 0 0 0 0 0 0 0 0 0 0 0 0 0 0 0 0 0 0 0 0 0 0 0 0 0 0 0 0 0
0 0 0 0 0 0 0 0 0 0 0 0 0 0 0 0 0 0 0 0 0 0 0 0 0 0 0 0 0 0 0 0 0 0 0 0 0 0 0 0 0 0 0
0 0 0 0 0 0 0 0 0 0 0 0 0 0 0 0 0 0 0 0 0 0 0 0 0 0 0 0 0 0 0 0 0 0 0 0 0 0 0 0 0 0 0
0 0 0 0 0 0 0 0 0 0 0 0 0 0 0 0 0 0 0 0 0 0 0 0 0 0 0 0 0 0 0 0 0 0 0 0 0 0 0 0 0 0 0
0 0 0 0 0 0 0 0 0 0 0 0 0 0 0 0 0 0 0 0 0 0 0 0 0 0 0 0 0 0 0 0 0 0 0 0 0 0 0 0 0 0 0
0 0 0 0 0 0 0 0 0 0 0 0 0 0 0 0 0 0 0 0 0 0 0 0 0 0 0 0 0 0 0 0 0 0 0 0 0 0 0 0 0 0 0
0 0 0 0 0 0 0 0 0 0 0 0 0 0 0 0 0 0 0 0 0 0 0 0 0 0 0 0 0 0 0 0 0 0 0 0 0 0 0 0 0 0 0
0 0 0 0 0 0 0 0 0 0 0 0 0 0 0 0 0 0 0 0 0 0 0 0 0 0 0 0 0 0 0 0 0 0 0 0 0 0 0 0 0 0 0
0 0 0 0 0 0 0 0 0 0 0 0 0 0 0 0 0 0 0 0 0 0 0 0 0 0 0 0 0 0 0 0 0 0 0 0 0 0 0 0 0 0 0
0 0 0 0 0 0 0 0 0 0 0 0 0 0 0 0 0 0 0 0 0 0 0 0 0 0 0 0 0 0 0 0 0 0 0 0 0 0 0 0 0 0 0
0 0 0 0 0 0 0 0 0 0 0 0 0 0 0 0 0 0 0 0 0 0 0 0 0 0 0 0 0 0 0 0 0 0 0 0 0 0 0 0 0 0 0
0 0 0 0 0 0 0 0 0 0 0 0 0 0 0 0 0 0 0 0 0 0 0 0 0 0 0 0 0 0 0 0 0 0 0 0 0 0 0 0 0 0 0
0 0 0 0 0 0 0 0 0 0 0 0 0 0 0 0 0 0 0 0 0 0 0 0 0 0 0 0 0 0 0 0 0 0 0 0 0 0 0 0 0 0 0
0 0 0 0 0 0 0 0 0 0 0 0 0 0 0 0 0 0 0 0 0 0 0 0 0 0 0 0 0 0 0 0 0 0 0 0 0 0 0 0 0 0 0
0 0 0 0 0 0 0 0 0 0 0 0 0 0 0 0 0 0 0 0 0 0 0 0 0 0 0 0 0 0 0 0 0 0 0 0 0 0 0 0 0 0 0
Wind_Speed
13 13 13 12 11 11 10 10 9 8 7 7 7 7 7 7 6 5 5 6 6 5 5 5 5 4 4 3 4 3 3 3 3 4 3 3 3 3 3 3 5 5 4
12 11 11 10 10 10 10 9 8 7 6 6 6 6 7 6 6 6 6 6 5 5 5 5 5 4 4 4 4 3 3 3 3 4 4 4 4 4 3 4 5 5 4
11 11 10 9 9 9 8 7 6 6 6 6 6 6 7 7 7 6 6 5 5 4 4 4 4 5 5 4 4 4 4 4 3 3 4 3 3 4 4 5 6 4 6
9 9 8 8 7 7 6 6 6 6 6 6 6 7 8 9 9 9 7 5 5 4 4 4 4 5 5 6 5 5 5 5 5 4 4 3 3 4 3 4 5 4 5
8 8 8 7 6 6 6 5 5 5 6 6 6 7 7 8 9 10 9 6 4 4 3 3 3 4 3 3 4 5 5 5 5 5 5 4 4 5 4 4 5 5 5
7 8 7 6 6 5 5 5 5 6 5 5 6 7 8 8 8 11 9 8 6 4 4 4 2 3 2 3 5 7 6 5 5 5 5 5 6 5 4 5 5 5 4
6 6 6 5 5 4 5 5 5 5 4 5 6 7 7 6 8 10 12 8 6 3 3 4 5 5 6 7 8 8 7 7 8 5 5 6 6 5 5 6 6 6 6
5 6 6 5 5 4 5 5 4 4 4 4 5 5 5 6 8 10 14 8 4 3 2 2 3 4 6 7 8 7 6 5 5 4 4 5 6 5 5 6 7 7 6
5 5 5 4 4 4 4 4 4 3 3 3 4 4 5 4 6 9 12 6 3 4 3 4 4 4 5 7 7 7 7 6 6 6 7 9 11 12 8 4 5 5 6
5 5 5 4 4 4 4 3 3 2 3 3 4 4 4 4 3 7 10 6 6 5 3 2 3 3 6 7 6 6 7 7 8 9 7 8 7 7 8 6 4 4 5
5 4 4 3 3 4 3 3 3 3 3 2 2 3 3 3 1 3 6 5 6 7 5 3 2 3 8 8 7 5 7 8 8 7 6 5 4 3 3 3 4 3 4
3 3 3 2 2 4 3 2 2 2 1 1 2 2 2 3 2 2 5 6 5 6 5 5 5 9 11 12 8 8 11 10 6 5 5 4 4 3 3 3 3 4 4
3 2 2 3 3 2 2 1 1 2 2 3 3 3 2 2 1 3 7 8 8 5 5 9 11 13 12 8 7 9 8 5 4 4 4 4 3 3 3 3 3 4 4
2 1 1 2 2 3 3 4 4 5 5 4 4 3 2 3 5 6 7 7 8 6 7 10 12 11 8 8 7 5 3 3 4 4 4 4 4 3 3 3 3 3 3
1 0 0 1 2 3 4 4 5 5 4 4 5 5 5 5 5 5 5 6 7 7 9 7 5 4 3 2 3 3 3 3 3 4 4 4 4 4 3 3 3 3 2
1 1 0 1 1 2 4 4 7 5 4 3 3 3 2 3 7 9 9 11 12 10 7 5 4 4 5 5 4 4 4 4 4 4 4 4 4 4 4 3 3 3 3
1 1 1 1 1 1 2 3 4 3 1 2 3 4 5 8 9 10 11 13 14 10 4 3 4 4 5 5 4 5 5 5 4 4 4 5 5 4 4 3 3 3 3
1 1 1 1 1 1 1 1 1 2 3 3 4 7 8 8 10 11 10 10 6 2 2 3 4 4 4 5 5 5 5 5 5 5 5 5 5 5 4 4 3 3 3
1 1 1 1 1 1 2 2 2 2 1 1 2 3 6 8 9 11 9 4 4 4 4 4 4 4 4 5 5 5 5 5 6 5 5 6 5 5 5 4 4 5 4
1 1 2 1 0 2 2 2 2 1 1 1 1 2 1 2 2 3 2 2 3 4 5 5 5 4 4 5 5 5 5 5 6 6 6 7 6 5 5 5 4 4 4
2 4 3 1 1 2 2 2 2 1 1 1 2 3 3 4 3 3 3 3 4 4 4 5 5 5 5 5 6 7 8 7 7 7 8 8 7 6 4 4 4 4 4
2 2 3 2 3 3 2 2 1 1 1 1 1 2 2 3 3 3 3 3 4 3 4 4 5 5 6 6 6 6 7 8 8 8 9 9 8 7 5 4 4 4 4
3 0 3 3 4 4 1 1 1 1 1 1 1 1 1 2 2 3 3 3 3 3 3 3 4 6 6 6 6 7 7 8 8 9 9 9 9 8 5 5 5 5 5
2 0 3 3 3 3 2 1 1 1 1 1 1 1 1 1 1 2 3 2 2 3 3 3 4 8 9 7 7 8 7 7 8 8 11 10 10 6 6 6 5 5 5
2 0 2 3 3 3 2 2 1 1 1 1 1 1 2 1 2 2 3 3 3 4 5 4 4 6 10 12 11 10 9 9 8 8 9 9 8 7 7 7 5 5 5
1 1 1 3 3 2 2 1 1 1 1 1 1 1 1 2 3 3 3 3 3 3 4 4 6 10 11 9 11 11 11 12 12 12 9 7 7 5 7 6 8 6 6
Wind_Direction
69 72 73 74 74 75 76 76 77 76 74 72 68 67 63 57 50 47 51 49 46 38 27 28 23 23 15 358 359 359 5 4 343 332 338 336 338 327 323 310 292 282 280
76 76 77 78 78 80 79 77 77 78 75 72 69 68 65 58 45 43 43 43 41 40 31 18 10 15 12 9 354 354 354 343 339 327 319 320 323 318 316 303 307 315 314
83 83 82 82 82 83 84 84 81 76 72 69 66 63 58 51 38 31 34 35 35 35 26 14 10 17 15 4 343 356 346 345 324 311 307 314 314 325 331 318 314 313 309
88 88 85 84 85 85 85 81 78 75 70 64 61 60 57 46 31 18 11 21 25 25 22 15 23 31 24 356 347 3 350 339 331 321 318 320 319 334 336 323 318 317 312
89 86 84 84 83 83 80 76 72 71 72 65 63 61 63 56 29 15 354 1 5 8 10 12 32 67 50 349 355 348 340 334 327 328 324 327 335 340 335 323 320 315 306
91 90 90 89 86 82 79 72 67 64 62 61 63 63 57 49 23 13 4 343 341 1 8 1 3 101 3 331 315 304 295 305 321 321 320 331 329 331 330 324 322 324 317
92 94 92 87 82 77 75 71 65 64 63 61 66 77 75 51 16 3 357 330 321 349 3 358 1 33 28 2 338 318 298 271 254 271 297 306 312 323 326 321 318 313 300
91 90 87 82 76 70 65 63 57 55 54 62 68 79 84 56 17 3 347 321 317 343 355 8 15 41 31 358 332 329 323 319 286 258 273 287 300 308 307 299 295 295 290
90 82 77 72 68 63 60 58 53 48 48 64 68 73 88 76 22 2 349 320 346 357 1 29 19 35 25 353 332 331 331 332 334 318 283 278 282 282 277 289 297 308 313
84 77 70 59 56 58 54 47 49 46 41 52 65 67 75 78 36 1 353 344 358 353 357 60 75 10 345 341 331 326 324 329 329 317 303 292 280 272 258 238 265 297 310
81 78 73 63 65 66 55 43 33 38 43 41 59 87 90 84 96 341 351 353 354 343 344 354 56 343 329 325 315 293 301 313 306 300 303 307 302 287 271 242 242 260 287
82 73 65 47 45 69 63 51 32 8 25 57 58 69 107 121 67 351 323 319 312 320 331 346 346 326 320 313 304 294 307 311 296 306 313 314 314 316 310 302 283 267 254
80 65 57 59 54 46 40 43 32 18 21 32 40 39 43 62 82 329 319 312 310 305 322 323 312 305 306 301 289 297 302 296 307 318 318 315 313 312 308 304 302 293 286
68 56 50 89 87 58 36 22 32 25 20 18 31 24 21 46 32 8 348 345 348 350 344 319 308 298 287 285 298 299 289 305 317 313 317 318 317 321 322 321 321 320 320
34 281 89 84 83 85 73 44 40 60 45 17 11 7 13 20 13 341 330 332 336 336 326 307 313 327 336 335 336 334 328 333 334 331 333 330 328 331 328 321 316 321 327
353 321 35 105 113 127 133 115 60 81 101 73 37 358 9 14 332 329 328 320 315 319 320 316 336 350 360 1 358 352 346 347 342 339 337 335 332 330 330 327 327 330 335
14 8 358 35 69 90 130 149 147 139 207 279 285 297 303 314 316 317 323 322 310 306 303 324 353 360 357 354 354 354 351 347 343 343 340 337 333 330 329 329 341 339 339
2 74 336 35 55 66 71 73 109 149 172 190 222 251 270 284 295 302 317 323 316 326 348 358 2 0 357 355 355 355 348 346 348 344 345 342 340 338 338 337 341 345 336
338 39 43 46 80 89 79 74 67 56 47 83 148 196 244 265 272 281 296 303 332 11 8 1 0 1 359 352 350 352 348 350 356 352 351 344 340 338 340 342 345 351 346
160 76 344 332 91 106 95 85 75 75 52 37 42 47 17 291 298 306 295 332 6 15 8 358 353 359 0 353 353 353 352 357 2 359 349 339 335 335 338 341 349 353 352
205 159 195 239 83 82 77 73 64 53 69 54 63 60 350 327 344 359 13 22 20 14 13 354 347 4 7 358 357 355 2 6 4 354 343 333 330 332 335 342 346 359 360
295 168 170 139 102 83 67 74 83 72 56 57 86 163 231 294 350 16 23 21 18 16 17 3 359 11 9 360 354 3 10 6 355 346 336 329 327 330 336 343 348 353 5
273 235 123 115 111 126 186 113 85 74 58 38 8 15 56 3 10 26 27 19 20 25 22 10 6 15 11 5 1 22 17 357 339 328 325 323 322 323 331 339 351 2 10
264 189 122 128 133 137 126 112 104 92 88 55 19 16 26 24 23 33 28 21 27 35 31 23 22 21 17 19 11 18 15 347 328 319 318 312 313 327 338 342 351 5 7
261 108 124 130 128 124 118 110 93 59 54 55 24 16 11 11 36 50 43 23 35 43 32 34 32 33 21 25 19 7 350 334 327 322 314 309 317 338 342 344 352 2 12
140 139 136 130 122 120 129 131 121 104 63 64 51 27 359 14 50 51 48 31 21 46 41 34 41 51 30 18 10 1 347 339 335 330 318 310 327 351 349 348 357 6 13